Tracking 27401 objects as of 4-Jun-2023
HD Live streaming from Space Station
objects crossing your sky now

FENGYUN 1C DEB

Track FENGYUN 1C DEB now!
10-day predictions


NORAD ID: 32304
Int'l Code: 1999-025CWV
Perigee: 726.0 km
Apogee: 816.8 km
Inclination: 99.4 °
Period: 100.1 minutes
Semi major axis: 7142 km
RCS: 0.0093 m2 (small)
Launch date: May 10, 1999
Source: People's Republic of China (PRC)
Launch site: Taiyaun Space Center, China (TSC)

Note: This is SATELLITE DEBRIS
Your satellite tracking list
Your tracking list is empty




NASA's NSSDC Master Catalog

Two Line Element Set (TLE):
1 32304U 99025CWV 23152.85765094  .00003102  00000-0  10128-2 0  9994
2 32304  99.4318   1.4024 0063616  59.9327 300.8146 14.38254623429281
Source of the keplerian elements: AFSPC